Theta_e
333 333 332 331 333 333 334 333 333 333 333 332 332 332 333 332 332 331 330 329 330 330 330 330 329 328 328 329 330 331 332 331 331 330 329 329 329 330 330 331 332 333 333 333 333 333 333 333 333 332 332 333 333 334 334 335 334 332 332 331 327 323 321 321 322 322 322 319 318 321 324 323 320 321 324 325 325 325 324 327 327 324 322 321 319
333 333 331 330 332 333 333 333 333 333 333 333 332 331 332 331 331 330 329 329 329 330 328 327 326 326 326 327 330 331 332 332 332 331 330 331 331 331 331 331 331 331 332 332 333 333 332 332 331 331 332 332 333 333 334 334 333 332 332 331 327 324 322 322 322 323 325 324 324 324 324 327 326 326 328 329 328 329 327 328 329 325 323 323 320
333 331 329 329 331 332 332 332 332 332 332 332 332 331 331 331 330 330 330 330 330 329 327 326 325 324 323 325 329 330 332 332 332 332 331 331 332 332 332 332 332 331 331 332 332 332 332 331 331 332 332 333 332 333 333 333 332 333 332 330 327 324 324 324 323 324 326 328 329 329 327 327 329 329 330 331 331 331 329 330 330 326 325 324 322
332 330 328 329 330 332 332 332 332 332 331 331 331 331 331 330 331 331 331 331 330 329 327 327 326 324 322 322 327 329 331 332 332 332 331 332 332 332 331 331 330 330 331 331 332 332 332 331 332 332 332 332 332 333 333 332 332 333 332 329 327 325 326 326 325 324 327 329 330 331 330 330 330 330 331 333 332 332 331 331 330 328 326 325 323
331 329 328 329 330 331 331 331 332 331 331 331 331 331 330 331 331 331 331 330 329 328 328 328 327 325 323 320 323 327 329 331 332 332 332 332 332 332 331 330 329 330 331 332 332 332 332 332 332 332 332 332 332 332 332 332 332 332 332 329 327 327 327 327 327 326 327 328 329 331 332 331 331 331 332 333 334 332 332 331 330 329 328 327 325
330 328 328 329 329 330 330 331 331 331 331 330 330 331 331 331 331 331 330 328 327 327 327 326 326 326 323 319 319 324 328 331 332 332 332 332 332 333 332 330 330 331 331 332 332 332 332 332 332 331 330 330 331 331 331 332 332 332 331 330 328 327 328 328 328 327 327 327 328 330 330 330 330 332 332 333 334 334 333 332 330 330 329 329 327
328 327 327 328 329 330 330 331 330 330 330 330 330 330 330 330 330 329 327 326 326 325 324 324 325 325 324 320 317 321 327 330 331 331 332 332 333 333 332 332 331 332 332 332 332 332 332 331 331 330 329 328 328 329 330 330 331 332 331 330 329 329 329 328 328 327 327 328 328 328 328 327 328 331 333 334 333 334 334 333 331 330 331 330 329
328 327 327 327 329 330 330 330 330 330 330 329 330 329 329 329 327 326 325 325 324 323 324 324 325 326 325 322 319 319 325 329 330 331 331 331 332 332 332 332 331 332 332 331 331 331 331 331 331 330 328 326 325 325 325 326 327 329 331 331 330 331 329 328 327 327 327 327 327 326 326 326 327 329 332 333 333 333 333 334 332 331 331 330 330
327 327 327 327 328 328 327 327 327 328 328 328 328 327 326 325 325 324 324 324 323 323 324 325 326 327 326 325 323 319 321 325 328 330 331 331 331 331 331 331 331 331 331 331 330 330 330 330 330 330 329 326 324 323 322 321 321 322 326 330 330 330 329 328 327 327 326 326 326 325 325 327 330 330 331 333 333 333 332 334 333 331 332 331 330
328 327 327 327 327 326 325 325 324 325 326 326 326 325 324 324 324 324 324 324 324 324 324 325 326 327 327 326 326 323 320 321 322 325 327 329 329 329 330 330 330 330 330 330 330 330 330 331 330 329 328 327 324 321 319 319 319 318 318 324 329 330 329 329 328 327 326 325 325 325 325 327 331 332 332 333 333 332 332 333 333 332 331 331 329
328 328 327 326 326 325 324 324 323 324 324 324 324 323 324 324 324 324 324 324 324 324 325 326 327 327 327 326 326 326 324 323 322 321 322 323 323 324 325 325 325 325 325 325 325 326 328 329 328 327 327 326 324 321 319 318 318 318 315 317 322 325 327 327 327 327 326 325 325 325 324 325 330 332 332 333 333 333 332 332 332 333 331 332 330
329 327 325 325 325 324 323 323 323 323 324 324 323 323 324 324 324 324 324 323 322 323 324 326 327 327 327 326 325 326 326 326 326 324 324 323 323 323 323 323 323 323 323 322 322 322 324 324 323 324 324 324 323 321 320 319 318 318 317 316 316 318 321 323 323 324 324 324 324 324 324 323 327 331 332 332 332 332 332 332 333 333 332 333 331
329 327 325 325 324 324 323 323 323 323 323 323 323 324 324 324 325 325 324 321 321 323 324 325 325 326 327 326 326 326 326 326 327 327 327 327 327 327 327 326 326 326 325 325 325 325 325 324 324 323 323 322 322 322 322 321 319 318 317 317 318 317 318 319 320 320 321 322 322 322 323 322 324 329 332 331 331 331 332 333 334 333 333 333 332
328 327 326 325 324 325 324 323 323 323 324 324 325 325 325 326 326 326 324 322 323 325 324 325 325 325 326 326 326 326 326 327 328 328 328 328 329 329 328 328 328 328 327 327 327 327 327 327 327 326 325 324 323 323 323 322 320 319 318 318 318 318 319 320 320 319 319 319 319 319 320 320 321 325 329 331 331 331 332 333 334 333 333 333 332
328 328 327 326 325 326 325 324 324 325 326 326 327 327 327 327 327 326 324 323 324 325 325 325 324 324 326 327 326 327 328 328 327 326 326 326 328 329 328 328 328 329 329 329 329 328 327 327 327 327 327 327 326 326 326 325 323 322 321 320 319 318 319 320 320 319 319 319 319 318 318 318 319 321 325 329 330 330 332 332 334 334 333 333 332
328 328 328 327 326 327 327 327 328 328 328 328 328 328 328 327 327 326 324 323 324 325 324 323 322 321 324 327 327 327 328 327 326 326 326 325 326 327 327 326 327 329 329 329 329 328 326 326 326 326 328 329 329 329 329 328 328 327 325 324 324 322 322 321 321 319 319 319 319 319 319 318 318 319 320 324 327 329 331 332 333 334 333 332 333
328 327 328 327 327 328 328 329 329 328 328 327 327 327 327 327 326 325 325 324 323 324 322 321 320 318 321 326 327 327 327 326 326 326 326 326 326 326 326 326 326 328 328 328 328 327 326 326 327 327 328 329 329 329 329 329 330 330 329 329 328 328 327 327 326 324 320 320 320 319 319 319 319 319 319 320 321 326 330 331 333 334 333 333 333
328 328 328 328 328 328 328 328 327 327 326 326 326 325 325 325 325 325 325 324 322 323 323 323 322 319 320 324 325 325 324 324 325 326 326 326 326 326 326 326 326 326 326 326 326 326 326 326 327 327 328 329 329 329 329 329 329 330 330 330 330 330 330 330 330 328 326 326 325 322 320 320 320 320 320 319 319 322 328 330 332 333 333 333 333
329 329 329 329 329 328 327 326 326 326 326 326 326 325 325 325 325 326 325 324 324 324 325 326 325 323 322 322 323 322 321 320 321 323 325 325 325 326 326 326 326 326 326 325 325 326 325 325 325 326 327 327 327 327 327 328 328 329 330 330 330 330 329 331 331 330 329 329 329 327 324 323 321 320 319 320 321 323 327 330 331 332 333 333 332
329 329 329 329 329 328 327 327 327 328 328 327 326 325 326 326 327 326 325 325 325 326 326 327 326 325 324 323 322 322 322 320 320 322 323 323 324 325 325 325 325 326 326 325 325 325 325 324 324 325 325 325 324 324 324 325 326 328 329 329 329 328 328 330 331 331 330 329 329 328 327 326 324 323 322 323 324 326 328 327 327 330 332 333 332
329 328 329 329 328 328 327 327 328 328 328 327 326 326 326 327 326 326 326 326 326 326 326 326 326 325 325 325 324 324 325 324 323 324 324 324 324 325 325 325 325 326 326 325 325 325 325 324 324 324 324 324 323 324 323 324 324 326 327 327 327 328 328 329 330 331 331 330 330 329 328 327 325 325 326 326 326 327 329 325 324 329 332 332 332
329 328 329 329 328 327 327 328 328 328 328 328 327 327 327 326 326 326 327 326 326 326 325 326 326 326 326 326 325 326 326 326 325 325 325 325 324 324 325 325 326 326 326 325 325 325 325 324 324 323 323 323 323 323 323 324 324 325 326 327 327 327 328 329 329 330 330 331 330 330 329 328 327 327 327 326 326 328 329 326 326 331 332 331 331
329 329 329 329 329 328 327 328 328 328 328 328 328 328 328 327 327 327 328 328 327 327 326 326 326 327 326 326 326 326 326 326 326 326 326 326 325 324 324 324 325 325 325 326 326 326 325 324 325 325 324 322 323 323 324 324 325 325 325 326 326 327 327 328 328 329 329 330 330 329 329 329 329 329 329 327 327 328 327 326 329 331 330 330 332
329 329 329 329 329 328 328 328 328 328 328 328 328 328 328 328 328 328 329 329 328 328 327 327 327 327 327 326 326 326 326 326 326 326 326 326 326 326 325 324 324 324 325 325 325 326 326 326 325 325 324 322 322 323 323 324 324 324 325 325 326 326 327 327 328 328 328 329 329 330 330 329 328 328 330 329 328 327 325 327 331 331 330 330 331
329 328 328 328 328 328 328 328 328 328 328 329 328 329 329 328 328 328 328 329 328 328 328 327 327 327 327 327 327 327 327 327 327 327 326 326 325 325 325 325 324 324 324 324 325 325 326 326 325 325 324 323 322 322 323 323 322 322 323 324 325 325 326 326 327 327 328 329 329 330 330 330 328 328 331 331 328 327 326 328 331 331 331 331 331
329 328 329 329 329 329 328 329 328 328 328 328 329 329 329 329 329 328 329 329 329 329 328 328 328 328 327 327 327 326 326 326 326 325 325 324 324 324 324 324 325 325 324 324 324 324 325 325 325 325 325 324 323 323 323 322 322 321 321 321 323 324 325 326 326 327 328 328 329 330 330 330 328 328 331 330 327 328 329 330 331 331 331 331 331
329 329 330 330 329 329 328 328 328 328 328 328 329 329 329 329 329 329 329 328 328 328 328 328 327 327 326 326 326 325 324 324 324 323 323 323 322 322 322 322 323 324 324 324 324 324 324 324 325 325 325 325 324 324 324 323 322 322 321 320 321 323 325 325 326 327 328 328 328 329 330 331 329 330 331 329 327 329 330 330 331 331 331 331 331
330 330 330 329 329 328 327 326 326 327 328 328 328 328 329 329 329 328 328 327 327 327 326 325 325 325 324 324 323 322 322 321 321 321 321 321 320 320 320 320 320 320 321 322 323 323 323 323 323 324 324 324 325 325 325 325 323 322 321 321 321 322 324 325 326 326 327 328 328 328 330 330 329 330 331 329 328 328 330 330 330 331 331 331 331
330 330 330 328 328 327 326 324 325 327 328 328 328 328 328 328 327 327 326 325 325 324 323 323 322 322 321 321 320 320 319 319 318 318 318 318 318 318 317 317 316 316 316 317 317 318 320 321 322 322 323 323 323 324 325 325 325 324 323 322 322 323 324 325 326 326 327 328 328 328 329 329 328 329 330 329 327 328 330 330 330 330 331 331 331
330 329 328 327 326 325 324 324 324 325 326 326 326 326 326 326 325 324 324 323 322 322 321 321 320 319 319 318 318 317 316 316 315 315 315 315 315 315 314 314 313 312 311 311 310 311 313 315 317 319 320 321 321 322 322 324 325 325 325 324 323 323 324 325 325 326 327 328 328 328 329 329 328 329 330 330 328 328 330 330 330 329 329 330 330
328 327 326 326 325 324 324 324 324 324 324 324 324 324 324 324 323 323 322 322 321 321 320 319 318 317 316 315 315 314 313 312 312 311 312 312 312 312 311 310 310 309 307 306 306 306 306 308 309 311 314 316 317 318 319 320 322 323 324 325 325 324 324 325 325 326 326 327 328 328 329 329 328 328 329 330 329 328 330 331 331 329 328 329 329
326 325 325 325 324 324 324 323 323 323 323 323 323 323 322 322 321 321 321 320 319 319 318 318 316 314 313 312 311 310 309 309 308 309 309 310 310 310 310 309 308 307 307 306 306 305 305 305 305 306 307 308 310 312 313 315 317 320 322 323 324 324 324 324 325 326 326 326 327 328 329 329 328 327 328 330 329 328 329 329 330 330 329 329 329
325 325 325 324 324 324 324 323 323 323 323 322 322 321 321 321 320 320 319 318 318 317 316 315 313 312 310 309 308 307 307 307 308 308 309 310 310 310 310 310 309 308 308 307 307 307 306 306 306 306 306 306 306 307 308 310 312 314 317 320 322 323 324 324 325 326 326 325 325 326 328 329 329 328 328 329 329 329 329 329 329 329 328 329 329
325 325 324 324 324 324 324 324 324 323 323 323 322 321 320 320 319 319 318 317 316 316 314 312 310 309 308 307 306 306 307 309 310 311 311 311 311 311 311 310 310 309 309 308 308 308 308 308 307 307 307 307 306 306 307 307 308 309 311 315 318 320 322 324 324 325 325 325 324 325 327 329 329 328 328 329 329 329 329 329 328 328 328 328 329
324 324 323 323 322 322 322 322 323 323 322 322 322 321 320 319 318 318 317 316 316 314 313 311 309 307 306 305 305 306 309 311 312 312 312 312 311 311 311 311 310 309 309 309 309 308 308 308 307 307 307 307 306 306 306 306 307 307 308 310 312 315 318 321 323 324 325 325 325 324 326 329 329 328 329 328 328 329 329 329 329 329 328 328 329
323 321 319 318 316 315 314 314 316 318 319 320 320 319 318 318 317 317 316 316 315 313 311 309 307 306 305 305 306 309 311 312 312 312 312 311 311 312 311 311 311 310 309 309 308 307 307 308 307 307 307 307 307 306 306 306 306 306 307 307 309 311 313 316 320 323 324 325 325 324 325 327 328 328 328 328 328 328 328 328 329 328 328 328 328
320 317 315 314 313 313 310 307 306 308 310 312 315 316 316 316 316 315 315 314 312 310 309 307 305 304 304 306 309 312 312 311 312 311 311 311 311 312 312 311 311 310 310 309 307 305 306 307 307 307 307 307 307 307 306 305 305 305 306 306 307 308 310 312 315 319 323 324 325 325 325 326 328 328 328 328 328 328 329 328 328 328 327 327 328
317 316 316 316 316 316 312 305 302 302 302 303 306 309 311 312 312 312 311 310 309 307 306 304 303 303 304 308 311 312 311 311 311 311 310 310 311 312 312 311 311 311 310 309 306 305 305 305 306 306 306 306 306 306 305 305 305 305 305 305 305 307 308 310 311 315 320 323 324 325 325 326 328 328 328 328 328 328 328 328 328 327 326 327 327
318 318 319 319 318 316 311 304 301 301 301 300 300 302 304 305 306 306 306 306 306 306 304 303 303 303 305 309 311 311 311 311 311 310 309 310 310 311 311 311 311 311 309 308 307 306 304 304 305 304 304 304 304 304 303 304 305 305 305 305 305 305 307 309 310 313 317 322 324 325 325 326 328 328 327 328 328 327 328 327 327 327 326 327 326
320 320 320 318 316 313 308 305 302 300 300 300 299 299 300 301 303 304 304 305 305 304 303 302 303 302 304 308 310 310 311 311 310 310 309 309 310 310 311 311 310 309 308 308 308 306 304 304 303 302 301 301 301 301 301 302 303 304 304 305 305 305 306 308 311 313 317 321 324 325 326 326 327 327 327 327 325 325 328 327 327 326 326 326 325
321 320 319 318 315 310 306 306 303 300 299 299 299 300 300 302 303 303 304 304 304 303 302 302 302 301 302 305 307 309 310 310 309 309 308 309 309 309 309 309 308 307 306 307 306 305 304 302 300 300 301 301 301 301 302 302 303 304 305 305 305 305 306 308 312 316 319 322 324 325 326 326 326 326 326 325 324 325 327 327 327 326 326 324 322
321 320 318 317 314 309 307 307 302 299 298 298 299 299 300 302 302 303 303 303 303 302 302 301 300 300 301 302 304 306 307 307 308 308 308 308 308 308 307 307 307 305 304 304 304 303 302 300 300 303 304 305 305 304 305 305 305 307 307 306 306 305 305 308 314 318 317 318 320 322 324 325 325 326 326 325 325 326 327 327 326 323 321 321 319
321 318 317 317 313 309 307 306 301 298 298 298 298 298 299 301 301 301 302 301 302 302 302 301 300 300 301 300 301 302 302 304 306 307 307 307 307 307 306 305 305 304 302 301 302 302 301 300 303 306 307 307 307 307 307 307 308 308 308 308 309 308 307 307 311 313 312 313 316 319 321 323 324 325 325 325 326 326 326 325 321 318 318 318 317
319 317 317 316 312 307 306 304 300 298 298 298 298 298 298 299 299 299 300 300 300 300 300 299 299 299 299 300 301 301 302 304 305 306 307 307 307 306 304 302 301 301 300 300 301 301 300 303 306 307 308 308 308 308 308 308 309 309 309 310 310 310 311 309 308 307 309 313 315 317 319 322 323 323 325 325 325 326 324 320 318 317 318 317 315
319 318 317 315 310 306 305 303 300 298 298 298 298 298 298 298 298 298 299 299 299 299 299 298 299 300 300 301 302 302 302 303 304 305 306 306 305 304 302 299 298 299 300 300 300 300 302 305 307 308 308 309 309 309 309 308 309 309 309 310 310 311 311 310 309 309 308 311 313 315 318 321 323 323 324 324 324 325 321 318 318 318 317 315 314
318 318 316 312 308 307 305 304 301 299 297 298 298 298 298 298 298 299 299 299 298 298 299 300 301 301 301 301 301 301 301 302 303 304 304 304 303 301 299 298 297 298 299 298 299 302 305 307 308 308 309 309 309 309 308 309 309 309 309 309 309 310 310 310 311 311 309 309 311 314 317 320 323 324 324 324 324 322 319 317 319 317 315 314 313
319 317 313 309 307 307 306 304 302 299 298 298 298 298 298 298 298 298 298 298 298 298 300 301 301 301 300 300 300 300 301 302 302 303 303 302 301 299 298 298 298 298 298 300 303 306 307 308 308 308 308 308 308 309 309 309 310 310 309 309 308 309 309 310 311 311 311 311 310 312 314 317 321 324 323 323 323 321 317 318 318 316 314 313 313
319 315 310 308 308 307 306 305 302 300 298 298 298 298 298 298 298 297 297 298 298 298 299 299 299 299 299 299 299 300 301 302 302 302 301 300 299 298 298 298 298 298 300 304 307 308 308 308 308 308 308 309 309 310 310 310 310 310 310 310 309 309 309 309 310 310 311 312 311 312 314 316 320 322 321 321 322 320 318 318 317 314 313 313 313
317 312 309 309 308 306 306 305 302 301 299 298 298 297 297 297 297 297 298 297 297 297 298 298 298 298 299 299 299 300 301 302 302 301 299 299 298 298 298 299 300 301 304 307 308 308 308 308 308 308 308 310 311 311 311 310 310 311 311 311 311 310 309 309 309 310 311 312 313 314 314 316 318 319 319 318 318 318 318 317 315 313 313 313 312
314 310 310 311 308 306 306 304 302 301 299 298 297 297 297 297 297 297 297 297 296 296 297 297 298 298 299 299 300 301 302 301 301 299 298 298 298 298 299 300 303 305 307 308 308 308 308 308 308 308 308 310 311 311 311 310 310 311 311 311 311 311 310 309 309 310 311 312 313 314 315 316 317 317 316 316 316 316 317 316 313 313 313 312 310
311 311 311 310 307 306 305 304 302 302 300 298 297 297 297 297 297 297 297 297 297 297 297 297 298 299 299 300 301 302 302 301 300 298 297 297 298 300 302 303 306 308 308 308 308 308 308 308 307 307 309 311 311 311 310 310 310 311 311 311 312 311 311 310 310 310 310 312 313 314 315 316 316 316 315 315 314 315 315 312 312 312 312 312 309
Wind_Speed
7 8 8 9 9 10 10 8 8 8 8 7 7 7 7 7 7 7 7 7 7 7 7 7 8 8 7 6 7 8 8 8 8 7 6 5 5 5 5 6 6 7 7 7 6 6 7 7 7 7 6 6 6 6 7 6 4 4 5 5 5 5 5 5 4 3 3 2 2 2 1 0 2 3 3 2 2 3 4 2 3 7 8 9 10
9 9 9 9 10 10 10 9 8 8 8 7 8 8 8 8 8 7 7 7 7 7 7 8 8 9 8 7 6 7 7 7 7 7 6 5 4 5 4 5 5 6 8 7 7 6 7 7 6 6 5 6 6 5 5 6 4 4 5 5 5 5 5 4 4 4 4 4 5 5 4 4 2 1 1 2 3 3 5 3 2 8 8 9 10
9 9 9 10 10 10 10 10 9 9 9 8 8 7 8 8 8 7 7 7 7 7 7 8 9 9 8 8 6 6 6 7 7 6 5 4 4 4 3 4 4 5 6 6 6 6 6 5 5 5 5 5 6 6 6 6 6 5 5 6 6 6 5 5 4 4 4 4 5 5 6 6 5 4 4 5 5 4 4 3 2 7 8 9 9
9 9 9 9 9 10 10 10 9 9 9 8 8 7 7 7 7 7 7 7 7 7 8 9 9 9 9 8 7 6 6 7 7 5 5 4 4 4 3 3 3 3 4 5 5 5 4 4 5 5 5 5 5 6 6 6 7 5 6 7 7 7 6 6 5 5 5 4 4 5 6 7 8 7 6 7 7 6 5 3 4 6 7 8 9
8 8 8 8 9 10 10 10 9 9 9 8 8 7 7 7 7 7 7 8 8 8 9 9 10 10 10 10 8 6 6 7 7 6 5 5 4 4 3 3 3 3 4 4 4 4 4 4 5 5 4 4 5 6 6 6 7 7 7 8 8 8 8 8 7 6 6 5 6 7 6 7 8 9 8 7 8 8 6 5 5 6 7 6 7
8 8 8 8 9 9 10 10 10 9 9 8 8 8 8 8 7 7 8 8 8 9 9 10 10 11 11 11 9 6 5 7 7 7 6 5 5 4 3 3 4 3 3 3 3 4 4 4 5 5 4 4 5 6 6 7 8 8 9 10 10 10 10 8 7 7 7 7 7 8 8 9 9 9 8 8 9 9 8 7 7 7 7 5 6
9 8 8 8 9 10 10 9 10 9 9 8 8 8 8 8 8 8 8 8 9 9 9 10 10 11 12 12 10 6 5 7 7 7 7 6 5 4 4 4 5 4 4 4 4 5 5 5 5 5 6 6 7 7 7 8 9 10 11 11 11 11 11 9 8 8 8 8 8 9 10 11 11 9 8 9 10 10 11 9 9 8 6 6 5
9 9 9 8 8 9 9 8 8 8 7 8 8 8 8 8 8 9 9 9 9 10 10 10 11 12 13 13 12 8 5 6 7 7 7 6 5 4 5 5 5 5 6 6 6 6 6 6 7 7 7 8 8 9 9 10 11 11 12 12 12 12 12 11 10 10 9 9 9 10 11 13 13 11 10 10 10 10 11 11 9 9 7 7 5
9 10 10 8 8 9 8 8 8 7 7 7 8 8 9 9 10 10 10 10 10 11 11 11 11 12 12 13 13 11 8 7 7 7 7 6 5 5 5 5 5 5 6 6 6 7 7 7 8 8 9 10 10 11 11 12 12 12 13 14 14 13 13 12 12 12 11 11 11 11 12 13 13 12 11 11 12 10 10 11 11 10 9 8 6
9 10 9 8 9 8 8 8 8 8 8 8 9 10 10 10 10 11 11 11 11 11 11 11 11 11 11 12 12 12 10 9 8 7 6 6 6 6 6 5 6 6 7 7 7 7 8 8 9 9 9 10 11 11 12 12 12 12 13 14 15 15 14 14 14 14 14 13 13 13 13 13 14 12 11 12 13 13 10 11 12 11 10 9 7
8 9 9 9 9 9 9 9 9 9 9 9 10 11 11 11 11 12 12 12 12 11 11 10 10 10 10 10 11 11 11 10 9 9 7 6 6 6 6 6 6 6 7 7 8 8 8 9 9 9 10 10 10 10 11 11 11 11 12 13 15 16 16 16 16 16 16 15 15 16 15 14 14 14 12 12 13 14 13 12 12 12 11 9 8
8 9 9 9 10 10 10 10 10 10 10 10 10 11 11 12 12 12 13 13 12 11 11 10 10 10 9 9 10 9 10 10 10 9 8 7 7 6 6 7 7 6 7 7 7 8 8 9 9 10 10 10 10 10 10 10 10 11 12 12 13 15 16 17 18 18 17 17 17 17 17 16 15 15 14 14 14 16 16 15 13 13 11 10 10
8 9 10 10 11 11 11 11 10 10 10 10 10 11 11 12 13 13 13 13 13 13 12 11 10 10 9 9 9 8 9 10 10 9 9 8 7 7 7 7 7 7 8 8 8 8 9 9 9 10 10 10 10 10 10 10 11 12 12 13 13 14 16 17 18 18 18 18 18 17 18 18 17 16 17 16 15 17 18 16 14 14 12 12 13
8 9 10 10 11 11 11 10 10 10 11 11 11 11 11 11 12 12 12 12 13 13 13 12 11 10 10 10 9 8 8 9 9 9 8 8 8 8 8 8 8 8 9 8 9 9 9 10 10 10 10 10 9 9 10 10 11 12 13 13 14 15 16 16 17 18 18 18 18 18 19 19 19 18 18 18 16 17 17 16 15 15 13 12 13
8 8 9 9 9 10 10 10 10 11 11 11 11 11 10 10 11 11 11 11 12 13 14 14 12 11 11 10 9 8 8 8 8 7 7 7 7 7 7 8 8 9 9 9 9 10 10 11 11 10 10 10 10 9 10 10 11 12 13 13 14 15 15 17 18 19 19 19 18 18 19 20 20 19 20 20 18 17 17 18 17 15 14 12 13
7 8 8 9 9 9 10 11 11 11 11 11 11 10 10 10 10 11 12 12 12 12 14 15 15 13 11 9 8 7 8 7 6 6 6 7 7 6 7 8 8 8 8 9 9 10 11 11 12 11 11 11 10 10 10 11 12 12 12 13 13 14 15 16 18 18 18 18 19 19 19 20 20 20 21 21 20 18 17 18 18 16 14 14 14
8 8 9 9 10 10 11 11 11 11 11 11 11 10 10 10 10 11 13 13 14 15 15 17 17 16 12 9 8 8 8 7 6 6 7 8 8 7 7 8 8 8 8 9 9 9 10 11 11 12 12 12 11 11 11 12 12 12 13 13 14 14 15 16 17 17 16 17 18 19 19 20 20 20 21 21 21 20 18 17 18 17 15 15 15
11 11 11 11 11 11 11 10 11 11 12 12 11 10 10 11 12 13 13 14 16 17 17 19 18 17 13 10 9 9 9 8 7 7 7 8 8 7 7 8 8 9 9 9 10 9 9 10 10 11 11 12 12 12 13 14 14 13 13 13 14 15 15 16 17 17 16 16 17 18 19 19 20 20 21 21 20 20 19 18 18 18 16 16 16
13 12 12 12 12 11 11 12 12 13 13 13 12 12 11 12 12 12 13 14 16 16 16 17 17 16 14 12 11 12 11 9 8 7 7 8 8 7 8 9 9 10 10 10 11 11 10 10 11 11 12 13 13 14 15 15 15 15 14 14 14 14 15 17 17 16 17 18 18 18 18 18 19 20 21 20 20 19 20 18 17 18 18 18 17
12 12 12 12 11 11 12 13 12 12 12 13 12 12 12 12 11 12 13 14 14 14 13 14 14 14 14 13 13 14 14 12 10 9 8 9 9 9 10 10 10 11 11 11 11 11 11 11 12 13 13 14 15 16 16 17 17 16 15 16 16 14 14 15 16 16 18 19 20 20 19 18 19 19 19 19 19 19 20 18 17 19 19 18 17
12 12 12 11 10 11 11 11 11 12 12 13 12 11 11 11 11 13 13 13 12 12 12 13 13 14 14 14 14 14 15 14 12 11 10 11 11 11 11 11 11 11 11 12 12 12 12 12 13 13 14 15 16 17 17 18 17 17 17 17 17 16 14 14 15 17 18 19 20 20 19 19 18 18 18 18 19 20 19 18 19 20 18 18 17
11 11 11 10 10 10 10 9 10 11 12 12 12 11 10 10 11 12 12 12 12 12 13 14 14 14 14 14 14 14 14 14 14 13 12 13 13 13 12 11 11 11 12 13 12 13 13 13 13 14 15 17 17 17 17 18 17 17 17 17 18 17 16 15 15 15 16 18 18 18 18 17 18 18 17 17 17 18 18 19 20 19 17 18 17
11 10 9 9 9 9 8 8 9 10 11 11 11 11 11 10 10 11 12 12 12 12 13 14 13 13 14 14 15 16 16 17 16 16 15 15 14 14 13 13 13 13 13 14 14 14 14 14 14 15 17 18 17 17 17 18 17 16 17 17 17 17 17 17 16 15 14 15 16 17 17 17 18 18 18 16 16 16 17 18 19 18 18 19 18
11 9 8 8 8 8 8 8 9 9 9 10 10 10 10 10 10 11 12 12 11 12 13 13 14 14 15 16 17 17 18 19 19 19 18 17 17 16 16 15 15 16 16 16 16 16 17 17 17 17 18 18 18 18 19 19 19 19 18 18 17 16 17 17 16 15 14 14 14 15 16 17 18 18 17 16 15 15 16 18 19 19 19 19 18
11 9 8 8 8 8 8 8 9 9 9 9 10 10 10 10 11 12 12 13 12 12 13 14 15 16 16 17 18 18 19 20 20 20 20 19 20 19 19 18 18 18 19 19 19 19 20 20 20 20 19 18 18 19 20 21 22 22 21 20 20 18 17 18 17 16 15 15 15 15 15 15 16 16 16 15 14 15 16 17 18 19 19 20 19
11 10 10 10 10 9 9 10 10 10 11 11 11 10 10 11 12 12 13 13 13 13 13 14 15 16 16 17 17 17 18 19 19 19 19 20 20 19 19 19 18 19 19 19 20 21 21 22 23 23 22 21 20 20 21 23 23 24 24 23 23 21 19 19 19 18 16 16 16 15 14 13 14 15 15 13 13 16 17 17 18 19 19 19 18
11 12 12 11 11 12 12 12 12 12 12 11 10 10 10 11 12 12 13 13 12 13 13 13 13 14 15 16 16 16 17 17 18 18 18 18 18 18 18 18 18 18 19 19 20 20 21 22 23 24 24 24 23 22 22 22 23 23 23 23 23 23 21 19 19 19 17 16 15 15 13 13 14 15 15 13 13 16 17 17 18 18 19 19 18
11 12 12 12 13 13 13 13 13 13 12 11 10 10 10 11 11 11 12 12 12 12 12 12 12 13 13 14 15 15 16 16 17 17 17 17 17 18 18 18 19 19 19 19 20 20 20 21 22 23 24 24 24 24 24 23 23 22 22 21 21 22 22 20 19 19 17 16 15 15 13 12 14 14 14 13 13 15 16 17 17 18 18 17 16
11 12 12 13 13 13 13 12 13 12 11 10 9 10 10 10 10 11 11 10 11 11 11 11 12 12 13 14 15 16 16 17 17 17 17 18 18 18 19 19 20 20 20 20 21 21 21 21 22 22 23 23 24 24 24 24 24 23 23 22 20 20 22 21 20 19 17 16 15 15 13 12 13 13 13 13 13 14 16 16 16 16 16 15 14
11 11 12 12 12 12 12 12 12 11 9 9 9 10 10 10 10 10 9 10 10 11 11 12 13 14 15 15 15 16 17 18 18 18 18 19 19 20 21 21 22 22 23 23 24 23 23 23 23 23 23 23 23 23 23 23 23 23 23 23 21 20 20 21 21 20 18 16 16 16 14 13 13 13 13 13 13 14 15 15 14 13 13 13 13
11 11 12 12 11 11 12 12 12 10 9 9 10 9 9 9 9 9 9 10 10 11 12 14 15 16 17 17 17 18 18 18 18 19 19 20 20 21 22 23 23 24 24 24 24 24 23 23 23 23 23 23 22 22 22 22 22 22 22 22 22 21 20 20 21 21 19 17 15 16 15 13 13 13 14 14 13 13 14 13 12 12 13 13 12
11 12 11 10 11 11 12 12 11 10 10 10 9 9 9 9 9 9 10 11 12 13 14 16 17 18 18 19 20 20 20 19 19 19 19 20 20 21 22 23 24 24 24 24 23 22 21 21 21 21 21 22 22 22 22 21 21 20 20 21 21 22 21 21 21 21 21 18 15 16 16 15 14 13 14 14 12 12 13 12 12 11 12 12 12
11 10 9 10 11 11 10 10 10 10 10 10 9 9 9 9 10 11 12 13 14 16 17 18 19 20 20 21 21 20 20 19 18 18 18 19 19 21 22 23 24 24 24 24 23 22 22 21 21 20 20 21 21 22 22 22 21 20 20 20 20 20 21 22 21 21 21 20 16 15 16 16 15 13 14 14 12 12 12 12 12 11 11 11 12
9 9 9 10 10 10 10 9 9 9 9 9 9 9 9 10 11 12 13 15 16 18 19 20 21 22 22 21 21 19 18 17 17 17 17 18 19 21 22 23 23 23 23 23 23 23 22 22 23 22 21 22 23 23 23 22 22 21 19 19 20 19 20 21 22 22 21 21 19 16 16 16 16 15 14 14 13 12 12 12 13 12 12 12 15
9 9 10 10 10 10 10 9 9 9 9 9 9 9 10 11 12 13 15 17 18 20 21 22 23 22 21 20 19 17 15 16 16 17 18 19 20 20 21 22 22 22 22 23 23 24 24 23 24 24 23 23 24 24 24 24 23 22 20 19 19 20 19 19 21 22 21 22 21 19 17 16 18 17 14 14 14 13 13 13 13 14 15 16 18
9 10 10 10 11 12 12 11 10 9 8 9 9 9 11 12 13 14 16 18 19 21 22 23 22 21 20 19 17 15 14 15 16 17 18 19 19 19 20 21 22 22 23 24 25 25 25 24 23 24 25 25 25 25 24 24 23 22 21 20 20 20 20 20 19 20 21 21 21 21 19 18 18 16 15 15 14 14 13 12 14 17 18 17 17
9 10 11 12 14 16 18 17 14 12 10 9 10 10 11 12 14 15 16 18 20 21 21 21 20 19 18 16 15 13 14 15 16 17 18 19 19 18 19 20 22 23 24 25 26 26 25 25 23 22 25 26 27 28 27 26 25 23 21 20 19 20 20 20 19 19 19 20 20 20 21 20 18 16 16 16 15 14 13 14 16 18 18 17 17
11 12 14 16 19 21 23 22 19 16 15 12 11 11 12 13 14 15 16 18 19 19 19 18 18 17 15 15 14 13 14 15 16 17 19 19 18 18 19 20 21 23 25 26 27 28 27 27 26 25 25 26 28 29 29 29 28 27 24 21 19 18 19 19 19 18 18 18 19 19 20 20 20 18 18 18 17 15 15 16 18 17 18 18 16
12 14 17 20 22 25 26 25 23 20 18 15 13 11 11 12 13 15 16 17 17 17 17 17 18 17 14 13 13 14 15 16 17 18 19 19 19 18 19 20 22 23 25 27 28 30 30 29 28 29 28 26 27 28 29 29 29 28 26 24 21 19 18 18 18 16 16 16 17 18 18 19 22 20 19 20 17 14 15 16 17 17 18 18 16
14 16 19 22 25 27 27 26 26 24 20 18 17 16 15 14 15 17 17 17 17 17 17 18 18 17 14 12 13 14 15 17 18 18 19 19 19 19 20 21 23 25 27 28 30 31 31 31 30 31 31 29 27 27 28 28 28 27 27 24 20 20 19 16 15 14 13 15 16 16 15 16 19 20 20 19 16 14 17 19 20 18 19 18 15
15 18 21 24 27 28 28 27 29 26 22 21 20 19 20 19 19 19 18 18 17 18 18 19 18 17 14 13 13 14 16 17 19 19 20 19 20 20 22 24 26 28 29 29 31 32 32 33 33 31 31 31 30 28 28 29 30 29 28 27 22 19 17 15 13 11 8 10 13 13 13 13 15 17 18 17 17 19 20 22 23 22 20 17 14
16 19 22 25 27 28 28 29 29 26 23 22 21 21 20 19 19 18 17 17 17 17 18 19 18 17 15 15 15 16 17 18 19 20 20 20 21 22 24 26 27 29 29 29 30 32 33 33 33 32 32 32 31 30 29 29 28 28 29 29 26 21 16 14 10 8 9 10 10 10 11 12 13 15 15 18 21 22 24 24 24 23 19 15 11
17 19 22 25 27 28 28 29 28 25 23 22 22 22 20 17 17 16 16 15 15 15 16 17 19 18 18 18 19 19 19 19 19 19 19 20 21 23 25 27 28 30 30 29 30 31 32 30 30 32 33 33 32 30 29 28 25 25 25 24 24 24 20 17 13 10 13 13 9 8 9 9 13 13 12 19 24 24 28 26 22 19 15 13 11
17 19 22 25 26 27 27 28 27 25 23 23 22 22 20 17 16 15 15 14 14 15 15 17 21 21 21 21 21 21 20 18 18 18 19 21 22 25 27 28 29 30 30 30 30 30 29 28 28 31 33 34 33 30 28 27 25 22 20 19 20 18 15 20 25 20 13 10 9 9 9 8 10 12 13 24 27 25 27 23 18 16 13 12 11
17 20 22 24 25 26 27 27 26 24 23 23 22 22 21 19 18 17 15 15 16 18 19 22 24 23 22 22 21 21 20 19 19 19 20 22 24 26 28 29 29 29 30 29 29 28 27 27 29 30 31 30 30 29 27 26 27 22 16 16 14 12 14 22 28 24 16 13 13 11 9 7 7 11 15 26 29 25 24 20 17 15 13 12 11
16 18 20 22 24 26 26 27 26 24 22 22 22 23 23 22 22 21 20 19 20 21 22 23 23 22 22 21 21 22 21 21 20 21 22 23 26 28 29 29 29 29 29 27 26 25 25 27 28 29 27 25 26 28 29 28 29 25 18 16 13 14 20 22 21 22 23 21 16 11 9 8 6 12 17 25 28 24 23 21 18 16 14 13 11
15 17 19 21 24 25 25 27 26 24 23 22 23 23 23 23 23 23 22 22 22 22 21 21 21 21 21 22 22 22 21 21 21 22 23 25 27 28 29 29 29 28 26 25 25 25 26 27 27 26 24 24 25 27 29 29 28 25 21 20 18 17 18 18 18 19 23 24 20 15 12 10 8 15 21 26 28 24 22 21 18 16 15 13 10
14 16 19 22 23 23 24 26 27 25 24 23 23 24 24 23 23 22 22 22 22 21 21 20 20 21 21 22 22 21 21 21 22 23 25 27 28 28 28 29 28 26 25 25 26 27 27 27 25 24 23 24 25 25 26 26 27 25 21 19 20 19 17 16 17 16 18 22 23 20 15 11 9 14 25 27 27 26 25 22 19 17 16 13 10
13 15 19 21 22 22 24 26 26 25 24 24 23 24 24 23 23 23 23 23 23 22 21 20 20 21 22 22 22 22 22 22 23 25 27 27 28 28 28 28 27 26 25 26 27 28 27 25 24 23 25 25 23 22 24 26 27 26 25 22 19 19 19 16 14 13 14 16 20 20 15 13 11 8 24 29 27 28 27 24 20 18 16 13 11
12 15 18 19 21 22 23 25 25 25 24 24 24 24 24 24 25 25 25 25 24 23 21 21 21 21 22 22 22 22 22 23 25 26 27 27 27 28 29 28 27 26 27 27 29 28 25 23 23 24 26 26 23 21 23 26 26 25 26 24 19 17 18 17 14 12 12 12 15 16 14 16 11 8 23 28 28 27 25 23 21 19 16 14 12
12 15 16 18 19 21 23 24 24 24 24 24 24 24 25 25 26 26 26 25 24 23 22 22 22 22 23 23 23 22 23 24 26 26 26 27 27 28 29 28 27 26 27 28 29 27 24 22 24 25 25 24 23 22 22 24 26 25 24 23 18 15 16 17 15 12 12 12 14 15 15 14 4 18 25 27 27 24 22 21 21 20 17 15 13
Wind_Direction
8 10 3 8 8 8 11 18 19 18 20 18 17 18 21 20 21 16 11 7 4 3 3 3 356 357 359 1 1 0 359 355 349 339 328 317 306 296 289 281 278 283 288 290 291 290 290 290 292 293 296 291 289 288 282 273 257 254 259 264 275 284 288 287 291 291 288 261 234 235 267 348 97 110 99 56 53 57 30 32 11 353 347 342 333
10 13 6 9 9 8 11 16 21 23 21 21 21 17 19 20 22 19 14 10 3 0 1 359 356 356 354 356 0 358 355 351 348 348 348 341 328 318 311 298 286 283 286 289 288 285 285 288 291 289 290 292 289 278 269 266 253 252 258 260 268 274 277 277 274 272 274 259 255 259 263 286 301 321 15 9 6 14 10 29 354 345 348 339 332
14 16 11 12 11 12 16 18 24 27 24 24 23 19 21 21 24 23 18 14 4 360 359 358 358 356 354 353 357 354 346 343 341 345 348 343 336 325 318 308 297 286 286 288 286 286 285 285 287 285 289 293 285 273 262 259 252 245 256 262 265 264 262 265 261 255 259 255 258 256 250 258 265 282 308 323 337 341 355 15 313 338 348 335 331
18 19 18 16 16 20 23 24 26 27 27 25 21 22 23 21 26 25 21 16 7 3 1 2 1 358 357 354 357 354 339 339 337 336 334 332 334 322 314 312 297 286 290 290 287 284 282 283 287 288 294 296 286 275 262 254 251 243 252 263 265 264 262 262 254 251 251 245 253 256 249 248 250 261 286 303 311 316 334 343 300 328 347 333 325
20 23 23 20 19 21 23 26 27 25 29 25 20 22 21 21 25 24 22 18 11 10 7 6 6 4 1 359 360 355 337 334 335 332 328 327 334 323 316 316 300 296 296 289 286 282 284 292 295 295 299 298 288 279 265 249 245 243 250 260 264 266 266 265 255 253 257 256 258 260 264 262 255 255 265 277 285 295 309 324 310 321 341 332 318
24 25 26 22 21 21 23 25 26 28 31 25 22 26 26 27 29 27 24 20 17 15 11 9 11 9 7 5 4 0 342 336 337 338 332 326 331 327 322 321 313 313 303 292 296 296 301 308 302 301 302 296 285 276 267 257 250 246 248 253 258 263 266 265 260 260 262 263 265 267 273 275 270 259 258 267 269 268 274 300 313 320 329 317 309
28 25 27 24 24 26 25 26 30 35 34 29 29 31 33 34 33 30 27 25 22 17 15 16 16 15 13 11 10 8 351 340 342 347 345 337 333 328 331 331 328 328 318 312 316 313 313 311 306 307 304 297 289 279 269 262 258 253 252 253 254 258 262 263 263 263 263 267 270 272 273 273 273 262 253 267 274 258 251 269 296 311 310 299 292
29 27 30 30 32 35 32 33 38 42 42 40 41 40 39 37 34 32 31 29 25 22 22 22 21 20 19 16 15 14 2 346 348 359 358 349 342 334 340 340 334 334 329 325 326 322 317 312 309 309 307 302 295 290 282 273 265 260 256 256 255 256 257 258 260 260 261 267 269 270 273 274 273 266 256 267 281 265 247 247 270 292 289 295 288
33 34 39 41 45 47 43 44 45 47 48 46 46 45 42 39 36 35 35 33 30 28 25 25 25 24 23 21 20 20 15 1 355 9 8 355 354 348 345 342 337 334 331 324 323 322 318 315 311 309 308 305 301 296 292 284 274 268 262 259 258 258 258 255 258 259 260 263 265 269 276 281 278 273 268 271 279 277 262 243 251 277 285 293 287
40 42 44 49 52 53 50 47 47 46 44 44 45 44 44 43 42 40 38 37 34 30 26 25 25 23 24 24 25 27 27 21 9 16 17 359 353 348 341 338 335 330 325 318 316 315 313 312 308 306 305 302 300 296 293 289 280 275 271 264 262 264 263 260 261 263 263 262 263 268 275 283 281 276 276 274 275 277 271 252 251 265 279 281 277
44 45 46 51 50 51 50 48 47 46 44 44 46 48 48 48 46 43 40 38 35 31 26 22 21 22 21 22 27 31 33 32 24 24 27 16 3 353 346 342 336 329 325 320 316 312 308 305 302 299 297 295 293 292 291 290 283 278 276 271 266 266 267 265 266 267 267 266 265 268 272 276 275 273 275 274 274 274 268 261 256 257 270 267 268
45 46 50 52 50 51 52 51 50 48 47 46 47 50 51 51 49 46 43 39 37 30 25 18 16 19 18 21 25 29 32 31 28 25 26 24 19 10 3 356 349 344 336 332 328 322 318 312 307 302 296 292 288 287 286 286 281 276 274 272 269 266 266 266 267 268 268 268 267 267 268 270 270 270 271 274 274 273 267 259 253 252 262 259 268
46 53 55 54 55 56 56 55 55 55 53 52 51 52 53 54 50 47 43 39 36 30 27 20 14 14 14 19 21 22 26 26 25 21 18 15 13 11 5 359 354 350 342 339 335 330 329 323 319 312 306 301 293 290 287 284 279 275 271 269 268 267 266 265 267 267 267 267 267 265 264 266 265 264 265 269 273 273 269 259 253 253 257 255 263
52 56 56 59 63 60 61 63 62 61 57 54 51 52 54 52 48 44 42 39 36 34 32 27 21 16 13 13 12 12 17 20 20 16 12 6 3 3 1 357 351 346 343 341 338 335 333 328 324 318 314 310 305 300 294 289 283 279 276 273 270 268 267 267 268 269 269 267 266 263 259 260 261 261 261 263 269 272 269 261 256 253 253 251 256
57 55 57 64 66 64 64 64 62 58 52 50 48 49 51 51 46 41 38 37 37 34 33 32 27 21 17 13 8 6 9 12 17 14 9 2 356 352 351 350 345 341 341 340 340 341 338 332 325 320 317 314 313 311 305 298 291 287 283 280 277 274 271 269 269 269 269 269 267 263 259 257 258 259 260 260 265 269 269 264 256 249 250 248 248
53 51 59 65 66 66 64 61 59 56 52 51 50 51 51 50 43 37 37 36 32 27 30 33 28 24 21 15 11 8 7 9 15 13 7 1 352 343 340 340 338 333 330 333 336 341 341 334 325 317 314 314 315 314 310 305 300 295 290 285 283 280 278 274 273 273 272 271 268 265 261 258 257 257 259 259 260 266 270 267 257 250 250 247 242
55 59 65 66 67 66 62 60 59 58 58 55 54 52 49 44 40 39 40 36 30 28 34 35 30 26 21 16 12 4 2 3 2 0 359 356 350 343 340 341 339 327 322 328 331 337 342 337 329 321 315 312 311 311 307 304 302 300 295 290 286 281 280 278 277 276 274 271 268 265 262 259 257 256 257 258 258 261 267 267 259 254 251 245 240
68 69 70 68 68 66 61 60 60 59 56 53 50 46 44 43 45 45 41 35 34 34 37 38 33 28 23 18 9 358 353 349 343 341 346 347 345 340 339 340 338 330 325 329 330 329 335 335 330 323 314 308 307 306 300 299 300 298 297 293 291 287 282 278 275 276 275 274 272 267 263 261 261 259 258 258 258 258 261 262 259 256 253 246 240
73 72 72 72 70 65 62 63 62 58 52 48 46 47 49 50 48 43 38 36 37 37 36 37 35 32 28 22 14 7 3 355 344 336 335 339 340 337 336 334 331 330 327 324 324 324 325 325 321 315 308 307 307 306 301 300 300 297 295 293 295 295 289 285 282 280 278 277 276 272 269 268 266 263 261 260 259 256 256 257 257 255 251 246 240
73 75 77 74 67 61 62 64 59 52 46 46 48 53 54 49 44 38 38 39 38 38 35 34 31 28 26 23 21 18 16 9 0 350 345 343 340 337 334 331 328 327 326 322 319 319 319 318 316 310 306 306 308 307 306 305 302 297 292 293 298 293 287 291 293 289 283 278 278 276 275 273 271 268 265 264 262 258 257 257 257 255 249 244 239
75 79 78 70 62 59 61 60 51 45 44 48 52 55 50 41 39 38 38 37 33 28 23 22 20 17 15 14 16 17 16 11 5 357 350 344 337 332 328 326 325 321 323 323 317 315 316 316 314 309 302 300 301 303 304 304 303 299 293 294 298 293 285 290 294 292 287 281 279 279 277 275 275 272 268 267 265 259 255 254 255 250 244 245 240
79 82 76 65 59 57 58 54 44 41 42 45 47 45 42 35 32 31 29 26 21 13 9 10 7 6 3 1 1 1 2 0 357 352 346 340 333 328 321 316 315 312 315 319 315 311 311 314 316 312 306 298 296 297 297 297 298 298 295 294 296 295 290 288 291 292 291 285 280 281 280 276 275 274 270 268 267 259 251 252 250 240 238 243 237
78 79 70 60 53 50 49 45 36 34 36 38 37 32 30 28 23 19 15 13 9 2 2 3 359 356 353 350 349 348 347 345 343 342 337 332 328 325 319 310 305 302 305 310 309 305 303 306 308 310 310 302 295 294 295 293 295 296 293 292 293 293 290 287 288 291 295 292 286 283 280 276 274 273 268 264 263 258 252 250 243 233 237 240 231
68 66 59 51 44 42 38 31 26 23 26 26 24 21 19 16 12 9 5 3 1 354 352 353 352 349 346 343 341 339 337 335 333 332 328 324 321 318 314 308 303 299 298 301 301 299 297 298 300 304 308 305 296 290 289 289 290 292 291 291 292 292 288 285 285 288 295 297 294 288 281 277 273 271 265 260 261 259 254 248 238 232 235 235 229
61 59 50 39 30 31 26 20 15 12 12 10 11 10 7 3 1 0 355 353 353 348 344 344 344 342 340 337 334 332 330 330 330 329 327 325 322 318 314 310 307 302 299 299 298 298 296 296 298 300 304 305 299 291 288 287 287 288 288 288 290 292 289 285 283 284 292 298 298 292 284 278 272 268 261 260 264 257 250 244 238 235 235 233 228
53 51 42 34 27 25 22 18 13 9 7 3 1 356 352 352 351 351 347 347 348 344 340 339 339 338 335 332 330 330 329 330 331 332 331 330 329 327 324 320 316 311 307 305 304 302 300 299 299 300 301 301 300 297 292 289 289 290 289 286 285 287 288 287 283 283 288 298 302 295 285 276 269 267 262 261 260 252 244 242 240 237 237 235 231
41 39 34 30 25 23 20 17 16 15 12 6 358 349 348 350 348 347 345 348 348 342 341 341 339 336 333 333 333 334 334 333 333 334 335 335 334 333 332 329 325 322 319 316 314 312 309 306 303 302 301 300 299 297 295 293 292 292 293 290 284 282 284 287 283 281 285 296 305 300 286 273 267 264 263 262 256 250 244 241 241 239 238 237 235
35 33 29 25 22 21 17 15 17 17 15 9 359 354 354 352 350 347 348 351 347 345 348 345 340 338 338 338 340 340 338 337 336 337 336 335 335 334 333 331 329 327 325 323 320 318 317 314 312 309 306 304 302 299 296 295 294 292 293 293 288 281 280 283 281 278 282 293 304 303 290 274 268 263 260 261 255 248 243 242 241 240 239 236 234
32 30 24 21 20 17 12 13 17 18 18 9 0 0 359 356 353 353 355 354 350 352 352 345 342 342 341 343 344 343 342 341 340 339 338 336 335 334 332 331 330 328 326 325 323 321 320 319 318 316 313 311 309 306 301 297 296 293 291 293 291 284 279 279 278 275 278 287 297 301 293 277 272 268 259 253 251 246 240 240 239 238 238 234 232
31 26 21 21 19 16 15 17 20 22 19 7 5 6 3 360 359 0 359 355 355 354 348 344 344 342 341 343 343 342 343 343 341 339 338 337 336 334 332 331 330 329 329 328 327 325 322 320 318 317 317 316 315 314 310 304 299 295 291 290 290 285 279 277 276 273 273 279 290 297 291 281 274 268 256 245 247 246 239 236 232 233 237 235 231
29 26 27 28 26 25 27 28 28 27 19 11 12 9 5 3 1 359 355 354 354 347 344 345 345 344 343 341 339 339 341 341 340 338 338 337 336 335 334 333 332 334 335 336 335 334 330 326 322 319 317 316 316 317 316 313 307 301 295 290 287 284 280 277 274 271 271 273 284 292 289 281 275 269 257 245 245 244 241 236 226 223 229 232 228
31 34 36 36 36 36 36 36 33 27 20 15 12 8 5 3 359 354 353 353 348 342 341 342 342 343 342 340 339 339 340 340 339 339 339 340 339 339 339 339 342 344 346 347 346 346 343 338 333 328 323 318 315 314 314 315 314 310 303 296 288 283 280 277 273 270 270 271 277 286 287 277 268 268 259 248 243 239 239 235 226 222 221 221 217
40 44 41 40 41 41 38 35 30 21 17 14 8 6 3 359 355 352 352 349 343 342 342 341 341 340 338 338 338 340 343 344 344 344 345 346 346 347 348 350 353 354 354 353 352 352 350 348 344 341 337 330 324 319 316 315 315 314 311 306 299 288 280 276 273 270 269 269 271 279 283 277 266 260 255 249 241 235 235 230 222 217 214 213 200
51 49 42 41 40 38 31 24 22 16 12 8 1 360 357 352 349 347 345 342 341 341 340 341 340 338 338 339 341 345 349 351 353 353 352 352 352 352 354 356 358 358 357 356 355 354 353 352 350 348 346 342 338 334 329 324 319 317 313 310 307 301 289 278 273 270 269 268 268 272 277 279 270 254 244 243 238 233 232 225 212 202 199 192 178
52 46 41 37 30 27 20 12 13 11 8 5 359 355 350 347 344 341 340 338 337 337 338 340 340 341 343 345 352 357 358 359 359 358 356 355 355 354 356 357 357 356 355 356 354 352 352 352 350 348 347 345 343 341 338 334 329 324 317 311 307 306 302 290 278 270 269 269 268 269 270 273 270 255 239 236 234 228 224 218 203 187 183 178 173
49 43 37 28 20 18 10 359 357 357 359 359 354 349 343 340 338 337 336 335 335 336 339 341 341 344 348 354 2 5 3 1 359 358 356 355 355 355 356 355 353 351 351 352 350 348 346 345 345 345 344 343 342 341 339 336 333 329 324 316 307 303 303 300 292 277 268 268 270 269 265 265 268 257 241 237 234 225 216 205 191 176 173 175 174
43 35 27 20 14 12 5 360 356 352 349 341 334 332 332 332 331 332 332 332 334 337 341 341 343 350 356 2 7 6 2 357 355 355 355 354 353 352 352 351 349 347 346 346 347 347 345 343 342 341 341 340 340 340 339 337 334 331 327 320 311 301 297 298 300 290 274 265 266 268 266 265 266 255 242 236 229 221 207 190 185 176 169 172 173
36 25 17 13 8 5 2 1 1 359 355 346 333 324 322 323 323 326 328 330 334 341 343 345 351 358 2 7 7 3 359 355 354 353 353 352 350 348 346 345 345 345 344 343 345 348 348 347 344 343 343 341 339 339 339 337 335 333 330 324 315 304 294 292 295 295 285 270 262 265 268 267 264 254 243 234 221 213 206 189 183 178 170 170 171
27 17 12 8 4 2 359 359 2 4 2 357 350 338 329 325 325 330 334 339 346 350 350 351 357 2 5 8 2 357 356 353 352 352 352 351 348 345 342 341 342 342 343 343 346 350 351 349 346 344 342 340 339 338 337 335 332 331 329 326 320 313 301 289 288 291 288 275 263 261 264 265 263 254 241 234 220 208 208 193 181 177 170 167 169
20 13 8 5 3 1 358 359 2 4 3 360 358 354 350 348 347 349 352 356 356 353 352 354 0 3 3 360 353 353 352 348 347 349 350 348 346 344 341 340 340 340 342 343 346 350 350 349 347 345 342 341 340 339 337 334 331 328 326 324 321 319 314 299 289 285 281 275 266 260 259 263 265 256 240 231 224 216 207 192 183 179 170 164 170
17 11 7 5 3 360 359 1 2 3 3 4 4 2 2 1 359 359 359 356 352 350 352 356 1 3 358 351 347 347 346 344 346 347 347 345 343 342 340 339 339 338 339 342 345 347 348 348 348 348 347 345 344 344 341 337 336 334 331 327 322 318 318 316 302 285 285 283 275 268 260 258 262 259 250 235 227 219 206 192 187 184 176 169 174
14 10 7 5 2 1 2 2 2 3 6 8 8 7 6 2 358 357 355 351 349 351 353 356 1 3 359 352 348 346 344 344 344 344 344 342 340 339 338 337 337 336 337 341 344 346 347 348 348 349 348 346 344 343 340 338 338 336 333 330 329 323 319 327 313 286 311 313 295 285 271 260 258 261 258 236 224 210 200 195 187 180 171 164 169
11 8 7 4 2 3 3 2 2 5 8 8 8 9 7 0 356 354 352 351 351 354 353 355 1 4 0 354 353 351 348 345 343 343 342 341 340 338 337 337 337 338 339 342 343 345 346 347 348 347 345 343 341 339 337 337 337 335 331 329 329 326 323 327 318 299 315 316 309 309 295 272 254 256 248 224 218 201 188 185 176 166 154 151 157
8 8 6 3 2 3 3 2 3 5 7 6 5 6 4 1 0 357 354 354 353 350 349 353 359 0 357 354 354 353 351 347 344 342 341 340 340 338 338 338 339 340 341 342 343 345 347 347 347 345 342 339 337 337 336 337 340 338 332 322 323 325 319 322 320 315 317 319 322 324 315 295 256 251 231 207 204 196 181 170 162 157 147 149 149
5 7 5 2 2 3 3 2 3 4 5 4 1 0 359 358 358 355 353 353 350 347 350 356 359 359 356 353 353 352 352 349 344 342 340 339 338 337 338 339 341 343 343 344 345 346 347 346 344 342 340 338 337 338 338 341 342 340 333 318 318 320 307 313 318 315 312 316 322 323 326 324 265 245 226 197 189 190 182 166 159 155 144 145 140
6 8 4 2 2 3 2 2 2 3 4 2 360 357 356 356 356 354 353 351 350 353 356 357 357 356 352 350 349 350 350 348 344 342 340 339 338 338 339 341 344 345 346 347 347 347 347 345 343 342 343 344 342 340 340 343 342 340 336 319 300 289 294 305 311 307 307 310 315 319 329 337 280 241 224 199 191 189 176 161 155 150 141 140 136
10 8 2 2 3 2 1 0 1 2 3 1 358 355 355 356 357 355 354 353 354 357 358 355 353 351 347 346 348 349 349 346 344 342 340 339 339 341 342 345 347 349 350 351 350 350 347 345 347 348 349 348 344 340 338 340 341 338 334 325 308 290 285 291 295 298 305 307 308 311 318 332 294 238 216 199 196 189 168 157 153 147 142 137 130
9 3 1 2 2 1 359 358 359 1 1 360 357 356 356 357 357 357 357 358 359 358 355 352 349 346 343 345 349 350 348 346 344 343 343 343 343 345 348 350 352 354 356 355 353 351 348 349 352 354 355 352 346 343 341 346 351 344 335 327 317 309 296 284 281 283 292 296 300 309 315 327 308 229 202 192 193 185 167 157 153 147 140 130 118
2 360 1 1 359 358 356 356 359 0 359 360 0 359 358 357 358 359 1 1 359 356 352 349 347 345 346 348 351 352 350 347 346 345 346 348 349 351 353 356 358 359 360 358 355 352 351 355 357 359 0 356 353 353 354 1 4 354 345 336 320 314 311 298 285 277 277 282 292 304 311 313 313 214 186 183 180 173 162 152 149 144 133 118 103
1 1 360 357 355 355 354 354 358 0 359 0 2 360 358 358 359 1 1 360 357 354 351 350 350 350 350 352 355 355 351 348 348 348 350 353 355 356 357 359 0 2 2 360 356 354 357 0 360 1 359 356 1 4 3 7 7 358 352 346 330 315 311 303 293 285 283 287 291 299 309 308 305 166 170 175 168 160 152 146 143 133 120 109 94
3 360 354 352 353 354 353 354 357 1 1 0 360 359 358 359 2 4 3 0 357 354 354 354 355 354 354 356 356 354 350 348 348 350 354 357 359 360 359 0 3 4 4 2 359 1 4 4 1 0 359 3 11 11 8 9 7 359 352 350 340 324 314 303 294 286 283 286 289 297 312 306 231 147 159 169 160 149 141 137 130 118 108 101 91